RADUGA 12 [-]

Last updated on Nov. 17, 2019, 4:20 a.m. UTC

1 13974U 83028A   19320.58088751 -.00000103  00000-0  00000+0 0  9996
2 13974  12.8916 327.9955 0003784   3.0000   9.8721  1.00249336145261
UTC
Height (km)
Latitude
Longitude
Inclination
Orbital Period
UTC large
Height (km)
Speed (km/s)
/
Latitude / Longitude
Inclination (degrees)
Orbital Period (minutes)
Azimuth
Elevation
Range (km)
Doppler Factor
iOS Compass Heading
iOS Angle

Next 30 passes for location: Hong Kong

Rise time Rise Azimuth (degrees) Set time Set Azimuth (degrees) Duration Max altitude (degrees)

No matching passes for this satellites